Location: Street
(51.1247°N, 2.7429°W)
Time: 04:05:51
(UTC+00:00)

Transit 2A Rocket - Pass Details

Date: 29 November 2020
Orbit: 592 x 911 km, 66.7° (Epoch: 16 January)

Event Time Altitude Azimuth Distance (km) Brightness Sun altitude
Exits shadow 06:59:33 - 320° (NW) 2,663 7.2 -7.7°
Reaches altitude 10° 07:00:53 10° 331° (NNW) 2,339 7.0 -7.5°
Maximum altitude 07:03:53 15° 5° (N) 1,957 6.9 -7.1°
Drops below altitude 10° 07:06:45 10° 40° (NE) 2,215 7.6 -6.7°
Sets 07:10:03 0° 64° (ENE) 3,062 8.7 -6.3°
